APG106 RPLL-RPVE

Flight info

Callsign APG106
Flight time N/A
Altitude 25000
Route VERDE2R VERDE W24 TAPER TAPER7B
Aircraft A20N/M-SDE2E3FGHIRWXY/LB1

Departure

Time N/A
Airport Ninoy Aquino International Airport (RPLL)

Arrival

Time 2026-04-22 03:26
Airport Godofredo P. Ramos Airport (RPVE)
Time Latitude Longitude Altitude Speed Heading
2026-04-22 02:51 13.39748 121.10499 24965 ft 434 kts 147°
2026-04-22 02:51 13.37271 121.12282 24966 ft 434 kts 147°
2026-04-22 02:52 13.34793 121.14052 24966 ft 434 kts 147°
2026-04-22 02:52 13.32340 121.15791 24971 ft 434 kts 147°
2026-04-22 02:52 13.29851 121.17548 24968 ft 434 kts 147°
2026-04-22 02:52 13.27360 121.19299 24970 ft 434 kts 147°
2026-04-22 02:53 13.24868 121.21049 24971 ft 434 kts 147°
2026-04-22 02:53 13.22379 121.22796 24968 ft 434 kts 147°
2026-04-22 02:53 13.19887 121.24545 24974 ft 434 kts 147°
2026-04-22 02:53 13.17390 121.26298 24975 ft 434 kts 147°
2026-04-22 02:54 13.14896 121.28049 24975 ft 434 kts 147°
2026-04-22 02:54 13.12407 121.29795 24975 ft 434 kts 147°
2026-04-22 02:54 13.09911 121.31545 24973 ft 434 kts 147°
2026-04-22 02:54 13.07414 121.33296 24971 ft 434 kts 147°
2026-04-22 02:55 13.04918 121.35047 24973 ft 434 kts 147°
2026-04-22 02:55 13.02425 121.36796 24971 ft 434 kts 147°
2026-04-22 02:55 12.99929 121.38545 24972 ft 435 kts 147°
2026-04-22 02:55 12.97434 121.40292 24971 ft 434 kts 147°
2026-04-22 02:56 12.94939 121.42038 24973 ft 434 kts 147°
2026-04-22 02:56 12.92473 121.43764 24969 ft 435 kts 147°
2026-04-22 02:56 12.89976 121.45511 24969 ft 435 kts 147°
2026-04-22 02:56 12.87471 121.47262 24970 ft 434 kts 147°
2026-04-22 02:57 12.84969 121.49010 24970 ft 435 kts 147°
2026-04-22 02:57 12.82568 121.50688 24965 ft 434 kts 147°
2026-04-22 02:57 12.80077 121.52429 24912 ft 433 kts 147°
2026-04-22 02:57 12.77588 121.54167 24506 ft 433 kts 147°
2026-04-22 02:58 12.75075 121.55921 23752 ft 438 kts 147°
2026-04-22 02:58 12.72566 121.57670 22708 ft 445 kts 147°
2026-04-22 02:58 12.70095 121.59393 21989 ft 443 kts 147°
2026-04-22 02:58 12.67486 121.61210 21335 ft 437 kts 147°
2026-04-22 02:59 12.64981 121.62955 20692 ft 432 kts 147°
2026-04-22 02:59 12.62960 121.64361 20171 ft 429 kts 147°
2026-04-22 02:59 12.60505 121.66068 19548 ft 425 kts 146°
2026-04-22 02:59 12.58096 121.67743 18944 ft 421 kts 146°
2026-04-22 03:00 12.55660 121.69436 18336 ft 416 kts 146°
2026-04-22 03:00 12.53274 121.71095 17657 ft 413 kts 146°
2026-04-22 03:00 12.50909 121.72740 17017 ft 408 kts 146°
2026-04-22 03:00 12.48579 121.74362 16369 ft 403 kts 146°
2026-04-22 03:01 12.46271 121.75971 15740 ft 399 kts 146°
2026-04-22 03:01 12.44324 121.77330 15198 ft 396 kts 146°
2026-04-22 03:01 12.42060 121.78912 14601 ft 392 kts 146°
2026-04-22 03:01 12.39816 121.80479 13998 ft 389 kts 146°
2026-04-22 03:02 12.37564 121.81991 13380 ft 385 kts 150°
2026-04-22 03:02 12.35181 121.83197 12873 ft 377 kts 159°
2026-04-22 03:02 12.32718 121.84026 12378 ft 370 kts 165°
2026-04-22 03:02 12.30261 121.84726 11929 ft 363 kts 165°
2026-04-22 03:03 12.27843 121.85403 11449 ft 357 kts 165°
2026-04-22 03:03 12.25462 121.86079 10977 ft 353 kts 165°
2026-04-22 03:03 12.23112 121.86757 10509 ft 349 kts 165°
2026-04-22 03:03 12.20917 121.87401 10299 ft 333 kts 165°
2026-04-22 03:04 12.18737 121.88039 10180 ft 319 kts 165°
2026-04-22 03:04 12.16652 121.88652 10060 ft 305 kts 165°
2026-04-22 03:04 12.14641 121.89248 9791 ft 299 kts 165°
2026-04-22 03:04 12.12677 121.89835 9593 ft 290 kts 164°
2026-04-22 03:05 12.10748 121.90418 9226 ft 287 kts 164°
2026-04-22 03:05 12.08862 121.90985 8870 ft 284 kts 164°
2026-04-22 03:05 12.06967 121.91533 8509 ft 282 kts 168°
2026-04-22 03:05 12.05028 121.91499 8162 ft 281 kts 194°
2026-04-22 03:06 12.03313 121.90590 7812 ft 280 kts 221°
2026-04-22 03:06 12.02105 121.89045 7476 ft 278 kts 236°
2026-04-22 03:06 12.01069 121.87396 7154 ft 276 kts 236°
2026-04-22 03:06 12.00025 121.85742 6773 ft 277 kts 235°
2026-04-22 03:07 11.99147 121.84402 6488 ft 277 kts 233°
2026-04-22 03:07 11.98053 121.82784 6125 ft 276 kts 233°
2026-04-22 03:07 11.96950 121.81178 5764 ft 276 kts 232°
2026-04-22 03:07 11.95839 121.79583 5412 ft 275 kts 232°
2026-04-22 03:08 11.94725 121.77992 5055 ft 275 kts 232°
2026-04-22 03:08 11.93611 121.76400 4688 ft 275 kts 232°
2026-04-22 03:08 11.92452 121.74856 4321 ft 272 kts 220°
2026-04-22 03:08 11.90848 121.73925 3991 ft 261 kts 188°
2026-04-22 03:09 11.89107 121.73966 3900 ft 246 kts 156°
2026-04-22 03:09 11.87630 121.74719 3804 ft 231 kts 145°
2026-04-22 03:09 11.86276 121.75504 3784 ft 218 kts 146°
2026-04-22 03:09 11.84957 121.76271 3779 ft 216 kts 139°
2026-04-22 03:10 11.84112 121.77395 3779 ft 190 kts 103°
2026-04-22 03:10 11.84089 121.78640 3780 ft 172 kts 73°
2026-04-22 03:10 11.84598 121.79712 3783 ft 178 kts 63°
2026-04-22 03:10 11.85196 121.80814 3787 ft 178 kts 64°
2026-04-22 03:11 11.85781 121.81922 3770 ft 175 kts 65°
2026-04-22 03:11 11.86309 121.82949 3725 ft 149 kts 66°
2026-04-22 03:11 11.86752 121.83838 3707 ft 137 kts 67°
2026-04-22 03:11 11.87156 121.84683 3727 ft 130 kts 68°
2026-04-22 03:12 11.87547 121.85512 3659 ft 130 kts 68°
2026-04-22 03:12 11.88343 121.87150 3000 ft 127 kts 68°
2026-04-22 03:12 11.88740 121.87953 2648 ft 126 kts 67°
2026-04-22 03:13 11.89132 121.88742 2373 ft 123 kts 67°
2026-04-22 03:13 11.89523 121.89521 2184 ft 126 kts 65°
2026-04-22 03:13 11.89813 121.90083 2096 ft 135 kts 66°
2026-04-22 03:13 11.90241 121.90933 1872 ft 138 kts 66°
2026-04-22 03:14 11.90786 121.91993 2044 ft 129 kts 68°
2026-04-22 03:14 11.91045 121.92536 2491 ft 128 kts 69°
2026-04-22 03:14 11.91455 121.93452 2780 ft 173 kts 68°
2026-04-22 03:14 11.92041 121.94694 3295 ft 199 kts 67°
2026-04-22 03:15 11.92642 121.95927 4613 ft 188 kts 66°
2026-04-22 03:15 11.93428 121.96961 5776 ft 187 kts 39°
2026-04-22 03:15 11.94659 121.97423 6195 ft 197 kts
2026-04-22 03:15 11.96011 121.97086 6204 ft 207 kts 330°
2026-04-22 03:16 11.96980 121.95998 5993 ft 213 kts 295°
2026-04-22 03:16 11.97210 121.94496 5583 ft 221 kts 259°
2026-04-22 03:16 11.96674 121.93012 5134 ft 228 kts 241°
2026-04-22 03:16 11.95917 121.91574 4750 ft 236 kts 242°
2026-04-22 03:17 11.95228 121.90029 4295 ft 243 kts 248°
2026-04-22 03:17 11.94679 121.88390 3936 ft 244 kts 253°
2026-04-22 03:17 11.94238 121.86730 3650 ft 241 kts 256°
2026-04-22 03:17 11.93849 121.85067 3302 ft 241 kts 257°
2026-04-22 03:18 11.93478 121.83396 3004 ft 238 kts 258°
2026-04-22 03:18 11.93113 121.81743 2657 ft 239 kts 257°
2026-04-22 03:18 11.92747 121.80099 2390 ft 237 kts 257°
2026-04-22 03:18 11.92378 121.78461 2109 ft 233 kts 257°
2026-04-22 03:19 11.92005 121.76825 2035 ft 243 kts 257°
2026-04-22 03:19 11.91491 121.75231 1984 ft 234 kts 237°
2026-04-22 03:19 11.90371 121.74096 1986 ft 230 kts 205°
2026-04-22 03:19 11.88891 121.73707 2006 ft 213 kts 173°
2026-04-22 03:20 11.87510 121.74142 1986 ft 206 kts 146°
2026-04-22 03:20 11.86321 121.74939 1983 ft 203 kts 140°
2026-04-22 03:20 11.85164 121.75772 1975 ft 203 kts 139°
2026-04-22 03:20 11.84253 121.76819 1982 ft 195 kts 112°
2026-04-22 03:21 11.83985 121.78136 1978 ft 186 kts 85°
2026-04-22 03:21 11.84382 121.79351 1985 ft 184 kts 63°
2026-04-22 03:21 11.85000 121.80477 1974 ft 174 kts 63°
2026-04-22 03:21 11.85566 121.81524 1976 ft 160 kts 65°
2026-04-22 03:22 11.86063 121.82484 1978 ft 150 kts 66°
2026-04-22 03:22 11.86549 121.83477 1988 ft 165 kts 67°
2026-04-22 03:22 11.87053 121.84516 1980 ft 162 kts 67°
2026-04-22 03:22 11.87554 121.85531 1962 ft 150 kts 67°
2026-04-22 03:23 11.88005 121.86439 1988 ft 144 kts 67°
2026-04-22 03:23 11.88452 121.87356 1981 ft 141 kts 67°
2026-04-22 03:23 11.88874 121.88209 1981 ft 131 kts 67°
2026-04-22 03:23 11.89282 121.89042 1958 ft 129 kts 67°
2026-04-22 03:24 11.89711 121.89895 1959 ft 135 kts 66°
2026-04-22 03:24 11.90127 121.90711 1997 ft 133 kts 67°
2026-04-22 03:24 11.90555 121.91555 1756 ft 135 kts 66°
2026-04-22 03:24 11.91001 121.92433 1223 ft 142 kts 67°
2026-04-22 03:25 11.91467 121.93336 630 ft 147 kts 66°
2026-04-22 03:25 11.91893 121.94244 317 ft 136 kts 68°
2026-04-22 03:25 11.92299 121.95084 46 ft 126 kts 67°
2026-04-22 03:25 11.92644 121.95777 30 ft 77 kts 63°
2026-04-22 03:26 11.92771 121.96024 26 ft 17 kts 63°
2026-04-22 03:26 11.92802 121.96109 28 ft 13 kts 103°
2026-04-22 03:26 11.92773 121.96135 27 ft 10 kts 149°
2026-04-22 03:26 11.92695 121.96175 26 ft 12 kts 150°
2026-04-22 03:27 11.92644 121.96218 29 ft 7 kts 111°
2026-04-22 03:27 11.92666 121.96256 31 ft 9 kts 57°
2026-04-22 03:27 11.92689 121.96304 27 ft 1 kts 64°
2026-04-22 03:27 11.92693 121.96314 28 ft 2 kts 69°
2026-04-22 03:28 11.92689 121.96323 29 ft 2 kts 123°
2026-04-22 03:28 11.92665 121.96333 27 ft 4 kts 151°
2026-04-22 03:28 11.92656 121.96338 26 ft 0 kts 151°
2026-04-22 03:35 11.92656 121.96337 26 ft 0 kts 151°